,,PressureMeas_1m,,PRMeasQMR101_1,,RHStat155_1m_1,,SRMeasQMS101R_1m,,TAStat155_1m_1,,GenWind_1,,GenWind_1,
2018-06-28, 07:00:06,VALID,917.426,VALID,0.0,VALID,94.695,VALID,92.256,VALID,19.122,INVALID,360.0,VALID,0.0,
2018-06-28, 07:01:06,VALID,917.438,VALID,0.0,VALID,94.769,VALID,121.561,VALID,19.152,INVALID,360.0,VALID,0.002,
2018-06-28, 07:02:06,VALID,917.449,VALID,0.0,VALID,94.697,VALID,124.733,VALID,19.205,VALID,149.0,VALID,0.23,
2018-06-28, 07:03:06,VALID,917.449,VALID,0.0,VALID,94.232,VALID,112.389,VALID,19.277,INVALID,360.0,VALID,0.006,
2018-06-28, 07:04:06,VALID,917.463,VALID,0.0,VALID,94.001,VALID,91.166,VALID,19.399,INVALID,360.0,VALID,0.014,
2018-06-28, 07:05:06,VALID,917.46,VALID,0.0,VALID,93.415,VALID,99.509,VALID,19.502,INVALID,360.0,VALID,0.084,
2018-06-28, 07:06:06,VALID,917.477,VALID,0.0,VALID,93.091,VALID,116.494,VALID,19.616,VALID,94.0,VALID,0.17,
2018-06-28, 07:07:06,VALID,917.491,VALID,0.0,VALID,92.186,VALID,109.595,VALID,19.707,VALID,94.0,VALID,0.452,
2018-06-28, 07:08:06,VALID,917.498,VALID,0.0,VALID,92.057,VALID,86.057,VALID,19.751,VALID,106.0,VALID,0.407,
2018-06-28, 07:09:06,VALID,917.522,VALID,0.0,VALID,92.058,VALID,68.412,VALID,19.773,VALID,84.0,VALID,0.606,
2018-06-28, 07:10:06,VALID,917.535,VALID,0.0,VALID,91.759,VALID,67.771,VALID,19.752,VALID,78.0,VALID,0.707,
2018-06-28, 07:11:06,VALID,917.548,VALID,0.0,VALID,92.193,VALID,83.513,VALID,19.718,VALID,90.0,VALID,0.495,
2018-06-28, 07:12:06,VALID,917.57,VALID,0.0,VALID,92.519,VALID,100.333,VALID,19.72,VALID,86.0,VALID,0.305,
2018-06-28, 07:13:06,VALID,917.593,VALID,0.0,VALID,92.698,VALID,84.214,VALID,19.742,VALID,85.0,VALID,0.465,
2018-06-28, 07:14:06,VALID,917.604,VALID,0.0,VALID,92.837,VALID,93.24,VALID,19.779,VALID,83.0,VALID,0.223,
2018-06-28, 07:15:06,VALID,917.626,VALID,0.0,VALID,92.854,VALID,97.243,VALID,19.864,VALID,80.0,VALID,0.107,
2018-06-28, 07:16:06,VALID,917.639,VALID,0.0,VALID,92.215,VALID,82.417,VALID,19.954,VALID,69.0,VALID,0.321,
2018-06-28, 07:17:06,VALID,917.656,VALID,0.0,VALID,91.402,VALID,98.982,VALID,19.942,VALID,67.0,VALID,0.465,
2018-06-28, 07:18:06,VALID,917.664,VALID,0.0,VALID,91.935,VALID,117.255,VALID,19.892,VALID,67.0,VALID,0.216,
2018-06-28, 07:19:06,VALID,917.68,VALID,0.0,VALID,92.533,VALID,87.306,VALID,19.923,VALID,67.0,VALID,0.083,
2018-06-28, 07:20:06,VALID,917.715,VALID,0.0,VALID,92.479,VALID,69.27,VALID,19.996,VALID,67.0,VALID,0.266,
2018-06-28, 07:21:06,VALID,917.729,VALID,0.0,VALID,92.345,VALID,77.159,VALID,20.019,VALID,67.0,VALID,0.282,
2018-06-28, 07:22:06,VALID,917.748,VALID,0.0,VALID,92.314,VALID,95.78,VALID,19.997,VALID,67.0,VALID,0.286,
2018-06-28, 07:23:06,VALID,917.747,VALID,0.0,VALID,92.489,VALID,101.056,VALID,19.966,VALID,67.0,VALID,0.259,
2018-06-28, 07:24:06,VALID,917.768,VALID,0.0,VALID,92.706,VALID,93.811,VALID,19.942,VALID,67.0,VALID,0.314,
2018-06-28, 07:25:06,VALID,917.77,VALID,0.0,VALID,92.992,VALID,91.077,VALID,19.916,VALID,55.0,VALID,0.337,
2018-06-28, 07:26:06,VALID,917.772,VALID,0.0,VALID,93.544,VALID,92.992,VALID,19.895,VALID,49.0,VALID,0.386,
2018-06-28, 07:27:06,VALID,917.784,VALID,0.0,VALID,93.756,VALID,97.813,VALID,19.885,VALID,48.0,VALID,0.26,
2018-06-28, 07:28:06,VALID,917.783,VALID,0.0,VALID,93.89,VALID,92.723,VALID,19.898,VALID,48.0,VALID,0.352,
2018-06-28, 07:29:06,VALID,917.782,VALID,0.0,VALID,93.742,VALID,92.208,VALID,19.915,VALID,48.0,VALID,0.409,
2018-06-28, 07:30:06,VALID,917.786,VALID,0.0,VALID,93.793,VALID,153.597,VALID,19.954,VALID,46.0,VALID,0.326,
2018-06-28, 07:31:06,VALID,917.788,VALID,0.0,VALID,93.73,VALID,222.182,VALID,20.032,VALID,45.0,VALID,0.224,
2018-06-28, 07:32:06,VALID,917.785,VALID,0.0,VALID,93.735,VALID,250.624,VALID,20.171,VALID,45.0,VALID,0.071,
2018-06-28, 07:33:06,VALID,917.791,VALID,0.0,VALID,93.58,VALID,266.553,VALID,20.367,VALID,27.0,VALID,0.177,
2018-06-28, 07:34:06,VALID,917.811,VALID,0.0,VALID,92.101,VALID,269.922,VALID,20.512,VALID,3.0,VALID,0.395,
2018-06-28, 07:35:06,VALID,917.828,VALID,0.0,VALID,90.534,VALID,261.584,VALID,20.6,VALID,359.0,VALID,0.34,
2018-06-28, 07:36:06,VALID,917.854,VALID,0.0,VALID,90.88,VALID,271.5,VALID,20.705,VALID,360.0,VALID,0.461,
2018-06-28, 07:37:06,VALID,917.873,VALID,0.0,VALID,91.082,VALID,280.004,VALID,20.797,VALID,360.0,VALID,0.64,
2018-06-28, 07:38:06,VALID,917.887,VALID,0.0,VALID,89.899,VALID,282.059,VALID,20.879,VALID,354.0,VALID,0.84,
2018-06-28, 07:39:06,VALID,917.902,VALID,0.0,VALID,89.316,VALID,287.911,VALID,20.911,VALID,358.0,VALID,0.887,
2018-06-28, 07:40:06,VALID,917.924,VALID,0.0,VALID,90.134,VALID,289.788,VALID,20.923,VALID,7.0,VALID,0.924,
2018-06-28, 07:41:06,VALID,917.942,VALID,0.0,VALID,90.486,VALID,289.487,VALID,20.975,VALID,355.0,VALID,0.786,
2018-06-28, 07:42:06,VALID,917.955,VALID,0.0,VALID,89.834,VALID,291.359,VALID,21.055,VALID,353.0,VALID,0.484,
2018-06-28, 07:43:06,VALID,917.957,VALID,0.0,VALID,89.167,VALID,293.476,VALID,21.149,VALID,346.0,VALID,0.542,
2018-06-28, 07:44:06,VALID,917.96,VALID,0.0,VALID,88.49,VALID,295.468,VALID,21.265,VALID,297.0,VALID,0.496,
2018-06-28, 07:45:06,VALID,917.976,VALID,0.0,VALID,87.605,VALID,297.083,VALID,21.226,VALID,255.0,VALID,0.634,
2018-06-28, 07:46:06,VALID,918.01,VALID,0.0,VALID,87.83,VALID,298.39,VALID,21.043,INVALID,360.0,VALID,0.19,
2018-06-28, 07:47:06,VALID,918.033,VALID,0.0,VALID,89.346,VALID,299.377,VALID,21.131,VALID,331.0,VALID,0.522,
2018-06-28, 07:48:06,VALID,918.051,VALID,0.0,VALID,88.41,VALID,299.322,VALID,21.322,VALID,354.0,VALID,0.368,
2018-06-28, 07:49:07,VALID,918.085,VALID,0.0,VALID,87.921,VALID,298.332,VALID,21.445,VALID,324.0,VALID,0.416,
2018-06-28, 07:50:07,VALID,918.105,VALID,0.0,VALID,86.441,VALID,295.386,VALID,21.491,VALID,324.0,VALID,0.568,
2018-06-28, 07:51:07,VALID,918.108,VALID,0.0,VALID,86.798,VALID,307.196,VALID,21.538,VALID,360.0,VALID,0.971,
2018-06-28, 07:52:07,VALID,918.126,VALID,0.0,VALID,86.912,VALID,312.917,VALID,21.472,VALID,355.0,VALID,0.445,
2018-06-28, 07:53:07,VALID,918.135,VALID,0.0,VALID,87.688,VALID,316.536,VALID,21.506,INVALID,360.0,VALID,0.162,
2018-06-28, 07:54:07,VALID,918.154,VALID,0.0,VALID,87.617,VALID,318.052,VALID,21.691,INVALID,360.0,VALID,0.077,
2018-06-28, 07:55:07,VALID,918.171,VALID,0.0,VALID,86.606,VALID,319.358,VALID,21.959,VALID,34.0,VALID,0.246,
2018-06-28, 07:56:07,VALID,918.18,VALID,0.0,VALID,84.125,VALID,321.491,VALID,22.223,VALID,13.0,VALID,0.914,
2018-06-28, 07:57:07,VALID,918.192,VALID,0.0,VALID,82.698,VALID,321.771,VALID,22.156,VALID,10.0,VALID,0.949,
2018-06-28, 07:58:07,VALID,918.201,VALID,0.0,VALID,84.903,VALID,323.648,VALID,21.928,VALID,12.0,VALID,1.37,
2018-06-28, 07:59:07,VALID,918.185,VALID,0.0,VALID,85.926,VALID,326.492,VALID,21.721,VALID,360.0,VALID,1.179,
2018-06-28, 08:00:07,VALID,918.193,VALID,0.0,VALID,86.793,VALID,326.954,VALID,21.623,VALID,22.0,VALID,0.539,
2018-06-28, 08:01:07,VALID,918.2,VALID,0.0,VALID,86.58,VALID,328.186,VALID,21.641,VALID,334.0,VALID,1.035,
2018-06-28, 08:02:07,VALID,918.205,VALID,0.0,VALID,85.99,VALID,328.102,VALID,21.653,VALID,346.0,VALID,1.03,
2018-06-28, 08:03:07,VALID,918.218,VALID,0.0,VALID,85.502,VALID,328.593,VALID,21.73,VALID,6.0,VALID,0.682,
2018-06-28, 08:04:07,VALID,918.228,VALID,0.0,VALID,85.511,VALID,332.169,VALID,21.892,VALID,27.0,VALID,0.573,
2018-06-28, 08:05:07,VALID,918.24,VALID,0.0,VALID,85.259,VALID,336.342,VALID,22.079,VALID,359.0,VALID,0.82,
2018-06-28, 08:06:07,VALID,918.247,VALID,0.0,VALID,83.772,VALID,338.231,VALID,22.017,VALID,12.0,VALID,1.079,
2018-06-28, 08:07:07,VALID,918.253,VALID,0.0,VALID,84.849,VALID,331.571,VALID,21.949,VALID,16.0,VALID,1.025,
2018-06-28, 08:08:07,VALID,918.259,VALID,0.0,VALID,84.147,VALID,280.117,VALID,21.919,VALID,2.0,VALID,0.565,
2018-06-28, 08:09:07,VALID,918.266,VALID,0.0,VALID,85.033,VALID,246.086,VALID,21.773,VALID,7.0,VALID,0.921,
2018-06-28, 08:10:07,VALID,918.281,VALID,0.0,VALID,86.839,VALID,322.828,VALID,21.683,VALID,353.0,VALID,0.698,
2018-06-28, 08:11:07,VALID,918.286,VALID,0.0,VALID,86.172,VALID,290.54,VALID,21.74,VALID,360.0,VALID,0.92,
2018-06-28, 08:12:07,VALID,918.303,VALID,0.0,VALID,86.104,VALID,323.404,VALID,21.694,VALID,355.0,VALID,0.607,
2018-06-28, 08:13:07,VALID,918.302,VALID,0.0,VALID,85.707,VALID,310.6,VALID,21.714,VALID,305.0,VALID,0.779,
2018-06-28, 08:14:07,VALID,918.313,VALID,0.0,VALID,85.431,VALID,373.803,VALID,21.7,VALID,345.0,VALID,0.968,
2018-06-28, 08:15:07,VALID,918.334,VALID,0.0,VALID,85.365,VALID,381.284,VALID,21.817,VALID,341.0,VALID,0.595,
2018-06-28, 08:16:07,VALID,918.344,VALID,0.0,VALID,84.756,VALID,384.883,VALID,22.002,VALID,7.0,VALID,0.915,
2018-06-28, 08:17:07,VALID,918.349,VALID,0.0,VALID,84.196,VALID,391.314,VALID,21.98,VALID,8.0,VALID,0.938,
2018-06-28, 08:18:07,VALID,918.36,VALID,0.0,VALID,85.247,VALID,393.253,VALID,22.08,VALID,353.0,VALID,0.249,
2018-06-28, 08:19:07,VALID,918.368,VALID,0.0,VALID,82.765,VALID,393.403,VALID,22.119,VALID,255.0,VALID,0.323,
2018-06-28, 08:20:07,VALID,918.369,VALID,0.0,VALID,83.345,VALID,367.232,VALID,21.989,VALID,270.0,VALID,0.304,
2018-06-28, 08:21:07,VALID,918.359,VALID,0.0,VALID,83.923,VALID,365.787,VALID,21.848,VALID,293.0,VALID,0.469,
2018-06-28, 08:22:07,VALID,918.37,VALID,0.0,VALID,84.261,VALID,404.75,VALID,21.695,VALID,293.0,VALID,0.476,
2018-06-28, 08:23:07,VALID,918.37,VALID,0.0,VALID,85.021,VALID,403.304,VALID,21.643,VALID,301.0,VALID,0.656,
2018-06-28, 08:24:07,VALID,918.373,VALID,0.0,VALID,85.307,VALID,400.657,VALID,21.637,VALID,281.0,VALID,0.338,
2018-06-28, 08:25:07,VALID,918.357,VALID,0.0,VALID,86.317,VALID,412.114,VALID,21.749,VALID,282.0,VALID,0.415,
2018-06-28, 08:26:07,VALID,918.355,VALID,0.0,VALID,84.654,VALID,418.101,VALID,21.715,VALID,291.0,VALID,0.784,
2018-06-28, 08:27:07,VALID,918.362,VALID,0.0,VALID,85.87,VALID,422.487,VALID,21.613,VALID,292.0,VALID,0.249,
2018-06-28, 08:28:07,VALID,918.364,VALID,0.0,VALID,86.151,VALID,420.629,VALID,21.713,VALID,274.0,VALID,0.268,
2018-06-28, 08:29:07,VALID,918.356,VALID,0.0,VALID,85.414,VALID,426.349,VALID,21.748,VALID,255.0,VALID,0.343,
2018-06-28, 08:30:07,VALID,918.361,VALID,0.0,VALID,85.813,VALID,340.883,VALID,21.696,VALID,257.0,VALID,0.37,
2018-06-28, 08:31:07,VALID,918.349,VALID,0.0,VALID,85.807,VALID,294.554,VALID,21.774,VALID,280.0,VALID,0.669,
2018-06-28, 08:32:07,VALID,918.327,VALID,0.0,VALID,85.335,VALID,260.549,VALID,21.731,VALID,256.0,VALID,0.36,
2018-06-28, 08:33:07,VALID,918.325,VALID,0.0,VALID,86.144,VALID,424.401,VALID,21.692,VALID,280.0,VALID,0.376,
2018-06-28, 08:34:07,VALID,918.321,VALID,0.0,VALID,85.296,VALID,437.344,VALID,21.855,VALID,308.0,VALID,0.587,
2018-06-28, 08:35:07,VALID,918.323,VALID,0.0,VALID,84.721,VALID,445.32,VALID,21.918,VALID,247.0,VALID,0.165,
2018-06-28, 08:36:07,VALID,918.305,VALID,0.0,VALID,84.712,VALID,449.989,VALID,22.043,VALID,309.0,VALID,0.549,
2018-06-28, 08:37:07,VALID,918.313,VALID,0.0,VALID,83.636,VALID,453.839,VALID,22.189,VALID,268.0,VALID,0.716,
2018-06-28, 08:38:07,VALID,918.315,VALID,0.0,VALID,84.09,VALID,453.915,VALID,22.116,VALID,262.0,VALID,0.262,
2018-06-28, 08:39:07,VALID,918.304,VALID,0.0,VALID,84.559,VALID,457.47,VALID,22.149,INVALID,360.0,VALID,0.132,
2018-06-28, 08:40:07,VALID,918.307,VALID,0.0,VALID,83.785,VALID,459.76,VALID,22.329,VALID,299.0,VALID,0.482,
2018-06-28, 08:41:07,VALID,918.305,VALID,0.0,VALID,83.314,VALID,397.17,VALID,22.346,VALID,315.0,VALID,0.199,
2018-06-28, 08:42:07,VALID,918.292,VALID,0.0,VALID,83.391,VALID,249.515,VALID,22.538,VALID,309.0,VALID,0.285,
2018-06-28, 08:43:07,VALID,918.273,VALID,0.0,VALID,83.36,VALID,301.837,VALID,22.68,VALID,337.0,VALID,0.704,
2018-06-28, 08:44:07,VALID,918.266,VALID,0.0,VALID,82.285,VALID,446.615,VALID,22.718,VALID,358.0,VALID,0.889,
2018-06-28, 08:45:07,VALID,918.252,VALID,0.0,VALID,83.511,VALID,474.616,VALID,22.678,VALID,1.0,VALID,1.236,
2018-06-28, 08:46:07,VALID,918.254,VALID,0.0,VALID,82.63,VALID,476.538,VALID,22.893,VALID,5.0,VALID,0.633,
2018-06-28, 08:47:07,VALID,918.248,VALID,0.0,VALID,81.474,VALID,479.207,VALID,23.078,VALID,8.0,VALID,0.851,
2018-06-28, 08:48:07,VALID,918.236,VALID,0.0,VALID,80.753,VALID,484.309,VALID,23.147,VALID,316.0,VALID,0.473,
2018-06-28, 08:49:07,VALID,918.229,VALID,0.0,VALID,80.765,VALID,489.532,VALID,23.134,VALID,8.0,VALID,0.814,
2018-06-28, 08:50:07,VALID,918.229,VALID,0.0,VALID,80.908,VALID,491.953,VALID,23.218,VALID,356.0,VALID,0.863,
2018-06-28, 08:51:07,VALID,918.227,VALID,0.0,VALID,79.73,VALID,495.018,VALID,23.311,VALID,6.0,VALID,0.764,
2018-06-28, 08:52:07,VALID,918.219,VALID,0.0,VALID,80.679,VALID,497.744,VALID,23.193,VALID,7.0,VALID,1.094,
2018-06-28, 08:53:07,VALID,918.215,VALID,0.0,VALID,80.758,VALID,500.29,VALID,23.041,VALID,33.0,VALID,1.17,
2018-06-28, 08:54:07,VALID,918.219,VALID,0.0,VALID,80.929,VALID,501.848,VALID,22.917,VALID,39.0,VALID,0.941,
2018-06-28, 08:55:07,VALID,918.217,VALID,0.0,VALID,81.702,VALID,502.847,VALID,22.91,VALID,2.0,VALID,0.82,
2018-06-28, 08:56:07,VALID,918.223,VALID,0.0,VALID,81.36,VALID,507.46,VALID,23.007,VALID,11.0,VALID,0.866,
2018-06-28, 08:57:07,VALID,918.238,VALID,0.0,VALID,80.532,VALID,512.378,VALID,23.034,VALID,10.0,VALID,0.954,
2018-06-28, 08:58:07,VALID,918.241,VALID,0.0,VALID,81.001,VALID,515.16,VALID,23.109,VALID,22.0,VALID,0.964,
2018-06-28, 08:59:07,VALID,918.255,VALID,0.0,VALID,79.911,VALID,518.397,VALID,23.264,VALID,350.0,VALID,0.516,
2018-06-28, 09:00:07,VALID,918.262,VALID,0.0,VALID,79.199,VALID,523.417,VALID,23.496,VALID,4.0,VALID,0.317,
2018-06-28, 09:01:07,VALID,918.27,VALID,0.0,VALID,78.761,VALID,526.612,VALID,23.819,VALID,23.0,VALID,0.861,
2018-06-28, 09:02:07,VALID,918.273,VALID,0.0,VALID,77.759,VALID,530.741,VALID,23.995,VALID,15.0,VALID,0.786,
2018-06-28, 09:03:07,VALID,918.258,VALID,0.0,VALID,77.425,VALID,532.748,VALID,24.189,VALID,5.0,VALID,0.671,
2018-06-28, 09:04:07,VALID,918.252,VALID,0.0,VALID,76.7,VALID,535.906,VALID,24.241,VALID,310.0,VALID,0.258,
2018-06-28, 09:05:07,VALID,918.25,VALID,0.0,VALID,75.797,VALID,538.164,VALID,24.016,VALID,255.0,VALID,0.53,
2018-06-28, 09:06:07,VALID,918.232,VALID,0.0,VALID,76.206,VALID,541.258,VALID,23.646,VALID,247.0,VALID,0.669,
2018-06-28, 09:07:07,VALID,918.243,VALID,0.0,VALID,77.687,VALID,545.66,VALID,23.33,VALID,289.0,VALID,0.704,
2018-06-28, 09:08:07,VALID,918.23,VALID,0.0,VALID,78.738,VALID,548.489,VALID,23.146,VALID,249.0,VALID,0.631,
2018-06-28, 09:09:07,VALID,918.235,VALID,0.0,VALID,80.506,VALID,551.656,VALID,23.057,VALID,269.0,VALID,0.566,
2018-06-28, 09:10:07,VALID,918.237,VALID,0.0,VALID,80.319,VALID,554.499,VALID,23.075,VALID,248.0,VALID,0.752,
2018-06-28, 09:11:07,VALID,918.224,VALID,0.0,VALID,80.091,VALID,557.583,VALID,22.972,VALID,260.0,VALID,0.222,
2018-06-28, 09:12:07,VALID,918.228,VALID,0.0,VALID,80.282,VALID,568.613,VALID,23.097,VALID,253.0,VALID,0.876,
2018-06-28, 09:13:07,VALID,918.229,VALID,0.0,VALID,78.744,VALID,580.67,VALID,23.021,VALID,245.0,VALID,0.586,
2018-06-28, 09:14:07,VALID,918.221,VALID,0.0,VALID,77.624,VALID,600.237,VALID,23.045,INVALID,360.0,VALID,0.226,
2018-06-28, 09:15:07,VALID,918.221,VALID,0.0,VALID,77.28,VALID,628.089,VALID,23.162,INVALID,360.0,VALID,0.035,
2018-06-28, 09:16:07,VALID,918.21,VALID,0.0,VALID,76.882,VALID,636.122,VALID,23.393,INVALID,360.0,VALID,0.082,
2018-06-28, 09:17:07,VALID,918.211,VALID,0.0,VALID,76.654,VALID,677.76,VALID,23.691,VALID,11.0,VALID,0.172,
2018-06-28, 09:18:07,VALID,918.221,VALID,0.0,VALID,74.947,VALID,682.724,VALID,24.301,VALID,70.0,VALID,0.296,
2018-06-28, 09:19:07,VALID,918.215,VALID,0.0,VALID,71.761,VALID,609.487,VALID,24.835,VALID,139.0,VALID,0.231,
2018-06-28, 09:20:07,VALID,918.228,VALID,0.0,VALID,70.533,VALID,572.974,VALID,25.079,VALID,133.0,VALID,0.323,
2018-06-28, 09:21:07,VALID,918.227,VALID,0.0,VALID,68.972,VALID,573.633,VALID,25.091,VALID,194.0,VALID,0.206,
2018-06-28, 09:22:07,VALID,918.209,VALID,0.0,VALID,69.925,VALID,300.749,VALID,24.885,VALID,149.0,VALID,0.267,
2018-06-28, 09:23:07,VALID,918.192,VALID,0.0,VALID,70.59,VALID,190.04,VALID,24.976,VALID,97.0,VALID,0.562,
2018-06-28, 09:24:07,VALID,918.189,VALID,0.0,VALID,71.349,VALID,155.959,VALID,24.894,VALID,65.0,VALID,0.753,
2018-06-28, 09:25:07,VALID,918.173,VALID,0.0,VALID,72.383,VALID,150.261,VALID,24.48,VALID,39.0,VALID,0.233,
2018-06-28, 09:26:07,VALID,918.176,VALID,0.0,VALID,74.318,VALID,160.445,VALID,24.128,VALID,39.0,VALID,0.111,
2018-06-28, 09:27:07,VALID,918.162,VALID,0.0,VALID,74.145,VALID,143.41,VALID,24.045,VALID,48.0,VALID,0.09,
2018-06-28, 09:28:07,VALID,918.159,VALID,0.0,VALID,75.106,VALID,152.329,VALID,23.933,VALID,34.0,VALID,0.273,
2018-06-28, 09:29:07,VALID,918.157,VALID,0.0,VALID,75.619,VALID,175.545,VALID,23.702,VALID,27.0,VALID,0.541,
2018-06-28, 09:30:07,VALID,918.17,VALID,0.0,VALID,77.211,VALID,223.122,VALID,23.462,VALID,38.0,VALID,0.869,
2018-06-28, 09:31:07,VALID,918.173,VALID,0.0,VALID,77.605,VALID,306.226,VALID,23.427,VALID,29.0,VALID,0.893,
2018-06-28, 09:32:07,VALID,918.16,VALID,0.0,VALID,77.931,VALID,397.519,VALID,23.37,VALID,360.0,VALID,0.906,
2018-06-28, 09:33:07,VALID,918.169,VALID,0.0,VALID,77.352,VALID,328.56,VALID,23.347,VALID,359.0,VALID,0.863,
2018-06-28, 09:34:07,VALID,918.155,VALID,0.0,VALID,78.03,VALID,539.26,VALID,23.36,VALID,355.0,VALID,1.05,
2018-06-28, 09:35:07,VALID,918.156,VALID,0.0,VALID,78.116,VALID,469.738,VALID,23.494,VALID,331.0,VALID,0.529,
2018-06-28, 09:36:07,VALID,918.134,VALID,0.0,VALID,77.263,VALID,453.608,VALID,23.687,VALID,237.0,VALID,0.844,
2018-06-28, 09:37:07,VALID,918.118,VALID,0.0,VALID,78.008,VALID,562.969,VALID,23.607,VALID,211.0,VALID,0.884,
2018-06-28, 09:38:07,VALID,918.114,VALID,0.0,VALID,77.13,VALID,757.499,VALID,23.72,VALID,170.0,VALID,0.916,
2018-06-28, 09:39:07,VALID,918.118,VALID,0.0,VALID,76.144,VALID,784.742,VALID,23.709,INVALID,360.0,VALID,0.293,
2018-06-28, 09:40:07,VALID,918.109,VALID,0.0,VALID,76.243,VALID,789.905,VALID,23.78,VALID,245.0,VALID,0.198,
2018-06-28, 09:41:07,VALID,918.103,VALID,0.0,VALID,76.506,VALID,523.691,VALID,23.963,VALID,214.0,VALID,0.31,
2018-06-28, 09:42:07,VALID,918.097,VALID,0.0,VALID,76.456,VALID,616.365,VALID,24.201,VALID,147.0,VALID,0.376,
2018-06-28, 09:43:07,VALID,918.083,VALID,0.0,VALID,75.555,VALID,762.841,VALID,24.514,VALID,180.0,VALID,1.094,
2018-06-28, 09:44:07,VALID,918.092,VALID,0.0,VALID,74.834,VALID,752.6,VALID,24.59,VALID,174.0,VALID,0.663,
2018-06-28, 09:45:07,VALID,918.071,VALID,0.0,VALID,74.342,VALID,771.614,VALID,24.583,VALID,174.0,VALID,0.974,
2018-06-28, 09:46:07,VALID,918.06,VALID,0.0,VALID,74.361,VALID,403.796,VALID,24.458,VALID,174.0,VALID,1.131,
2018-06-28, 09:47:07,VALID,918.043,VALID,0.0,VALID,74.686,VALID,571.389,VALID,24.266,VALID,172.0,VALID,0.739,
2018-06-28, 09:48:07,VALID,918.026,VALID,0.0,VALID,75.847,VALID,740.242,VALID,24.314,VALID,188.0,VALID,0.707,
2018-06-28, 09:49:07,VALID,918.014,VALID,0.0,VALID,75.031,VALID,777.471,VALID,24.505,VALID,181.0,VALID,0.35,
2018-06-28, 09:50:07,VALID,917.997,VALID,0.0,VALID,74.619,VALID,769.989,VALID,24.739,VALID,148.0,VALID,0.174,
2018-06-28, 09:51:07,VALID,917.985,VALID,0.0,VALID,72.593,VALID,748.107,VALID,24.961,VALID,196.0,VALID,0.377,
2018-06-28, 09:52:07,VALID,917.975,VALID,0.0,VALID,72.42,VALID,738.543,VALID,24.909,VALID,150.0,VALID,0.246,
2018-06-28, 09:53:07,VALID,917.969,VALID,0.0,VALID,73.04,VALID,732.897,VALID,25.007,VALID,172.0,VALID,0.988,
2018-06-28, 09:54:07,VALID,917.962,VALID,0.0,VALID,73.263,VALID,729.032,VALID,25.013,VALID,192.0,VALID,0.695,
2018-06-28, 09:55:07,VALID,917.961,VALID,0.0,VALID,72.673,VALID,727.341,VALID,25.252,VALID,119.0,VALID,0.555,
2018-06-28, 09:56:07,VALID,917.964,VALID,0.0,VALID,72.854,VALID,750.881,VALID,25.662,VALID,136.0,VALID,0.687,
2018-06-28, 09:57:07,VALID,917.968,VALID,0.0,VALID,70.774,VALID,537.416,VALID,25.911,VALID,129.0,VALID,0.741,
2018-06-28, 09:58:06,VALID,917.966,VALID,0.0,VALID,69.008,VALID,257.582,VALID,25.903,VALID,169.0,VALID,0.621,
2018-06-28, 09:59:06,VALID,917.956,VALID,0.0,VALID,69.955,VALID,178.997,VALID,25.64,VALID,176.0,VALID,0.518,
2018-06-28, 10:00:06,VALID,917.948,VALID,0.0,VALID,69.9,VALID,194.419,VALID,25.318,VALID,134.0,VALID,0.73,
2018-06-28, 10:01:06,VALID,917.952,VALID,0.0,VALID,70.992,VALID,236.868,VALID,25.158,VALID,157.0,VALID,0.314,
2018-06-28, 10:02:06,VALID,917.941,VALID,0.0,VALID,70.92,VALID,628.698,VALID,24.983,VALID,166.0,VALID,0.186,
2018-06-28, 10:03:06,VALID,917.937,VALID,0.0,VALID,72.808,VALID,769.068,VALID,24.979,VALID,130.0,VALID,0.362,
2018-06-28, 10:04:06,VALID,917.936,VALID,0.0,VALID,70.734,VALID,772.663,VALID,25.185,VALID,88.0,VALID,0.176,
2018-06-28, 10:05:06,VALID,917.938,VALID,0.0,VALID,69.37,VALID,769.596,VALID,25.403,VALID,155.0,VALID,0.489,
2018-06-28, 10:06:06,VALID,917.944,VALID,0.0,VALID,70.198,VALID,769.273,VALID,25.668,VALID,120.0,VALID,0.361,
2018-06-28, 10:07:06,VALID,917.936,VALID,0.0,VALID,68.478,VALID,777.155,VALID,26.026,VALID,78.0,VALID,0.387,
2018-06-28, 10:08:06,VALID,917.932,VALID,0.0,VALID,67.399,VALID,793.618,VALID,26.336,VALID,104.0,VALID,1.094,
2018-06-28, 10:09:06,VALID,917.919,VALID,0.0,VALID,66.459,VALID,807.427,VALID,26.369,VALID,115.0,VALID,0.958,
2018-06-28, 10:10:06,VALID,917.919,VALID,0.0,VALID,66.269,VALID,812.046,VALID,26.18,VALID,99.0,VALID,0.955,
2018-06-28, 10:11:06,VALID,917.906,VALID,0.0,VALID,67.061,VALID,763.87,VALID,26.182,VALID,92.0,VALID,1.336,
2018-06-28, 10:12:06,VALID,917.895,VALID,0.0,VALID,66.14,VALID,723.674,VALID,26.05,VALID,84.0,VALID,1.383,
2018-06-28, 10:13:06,VALID,917.881,VALID,0.0,VALID,67.302,VALID,768.531,VALID,25.636,VALID,57.0,VALID,0.81,
2018-06-28, 10:14:06,VALID,917.871,VALID,0.0,VALID,68.132,VALID,796.742,VALID,25.624,VALID,111.0,VALID,0.327,
2018-06-28, 10:15:06,VALID,917.849,VALID,0.0,VALID,67.525,VALID,719.75,VALID,25.915,VALID,61.0,VALID,1.058,
2018-06-28, 10:16:06,VALID,917.852,VALID,0.0,VALID,66.769,VALID,191.426,VALID,25.838,VALID,41.0,VALID,0.295,
2018-06-28, 10:17:06,VALID,917.849,VALID,0.0,VALID,69.648,VALID,402.382,VALID,25.779,VALID,118.0,VALID,0.851,
2018-06-28, 10:18:06,VALID,917.876,VALID,0.0,VALID,69.289,VALID,660.273,VALID,25.903,VALID,122.0,VALID,1.34,
2018-06-28, 10:19:06,VALID,917.88,VALID,0.0,VALID,65.539,VALID,805.019,VALID,25.801,VALID,91.0,VALID,0.984,
2018-06-28, 10:20:06,VALID,917.895,VALID,0.0,VALID,67.156,VALID,800.504,VALID,25.748,VALID,110.0,VALID,0.671,
2018-06-28, 10:21:06,VALID,917.897,VALID,0.0,VALID,66.359,VALID,799.205,VALID,25.854,VALID,158.0,VALID,0.332,
2018-06-28, 10:22:06,VALID,917.906,VALID,0.0,VALID,66.495,VALID,806.959,VALID,25.99,VALID,122.0,VALID,0.591,
2018-06-28, 10:23:06,VALID,917.9,VALID,0.0,VALID,68.117,VALID,815.382,VALID,26.136,VALID,65.0,VALID,1.488,
2018-06-28, 10:24:06,VALID,917.899,VALID,0.0,VALID,66.897,VALID,822.983,VALID,26.205,VALID,55.0,VALID,0.654,
2018-06-28, 10:25:06,VALID,917.905,VALID,0.0,VALID,67.391,VALID,829.657,VALID,26.398,VALID,63.0,VALID,0.724,
2018-06-28, 10:26:06,VALID,917.898,VALID,0.0,VALID,64.858,VALID,833.565,VALID,26.451,VALID,84.0,VALID,0.403,
2018-06-28, 10:27:06,VALID,917.876,VALID,0.0,VALID,65.483,VALID,806.906,VALID,26.41,VALID,179.0,VALID,0.151,
2018-06-28, 10:28:06,VALID,917.845,VALID,0.0,VALID,66.848,VALID,342.781,VALID,26.25,VALID,239.0,VALID,0.693,
2018-06-28, 10:29:06,VALID,917.843,VALID,0.0,VALID,68.029,VALID,183.038,VALID,26.055,VALID,255.0,VALID,0.354,
2018-06-28, 10:30:06,VALID,917.84,VALID,0.0,VALID,68.245,VALID,201.651,VALID,25.888,VALID,188.0,VALID,1.222,
2018-06-28, 10:31:06,VALID,917.847,VALID,0.0,VALID,67.253,VALID,706.151,VALID,25.679,VALID,164.0,VALID,0.696,
2018-06-28, 10:32:06,VALID,917.837,VALID,0.0,VALID,67.17,VALID,791.151,VALID,25.579,VALID,248.0,VALID,0.427,
2018-06-28, 10:33:06,VALID,917.828,VALID,0.0,VALID,68.795,VALID,872.979,VALID,25.673,VALID,298.0,VALID,0.568,
2018-06-28, 10:34:06,VALID,917.819,VALID,0.0,VALID,67.038,VALID,877.987,VALID,25.76,VALID,277.0,VALID,0.36,
2018-06-28, 10:35:06,VALID,917.811,VALID,0.0,VALID,66.609,VALID,902.567,VALID,25.891,VALID,295.0,VALID,0.58,
2018-06-28, 10:36:06,VALID,917.798,VALID,0.0,VALID,66.589,VALID,909.375,VALID,26.029,VALID,288.0,VALID,0.364,